OPS 4682 DEB, 18967

Orbit data source: Space-Track

OPS 4682 DEB, 18967 is space debris in LEO originally from a launch on Sat, 03 Apr 1965 UTC launched from the Air Force Western Test Range (AFWTR). Debris objects in space refer to the collection of defunct objects orbiting the Earth. Examples of debris include non-operational satellites, rocket bodies, and fragments generated from explosions, collisions, or faulty payload assembly.

Loading next visibility...
Identifier
18967, 1965-027AP
Orbit
LEO
Last TLE update
15 hours ago
Origin
Manufacturer
Unknown
Mission
Spacecraft
Bus & Motor
Unknown
Mass
Unknown
Launch date (UTC)
1965-04-03 (60 years ago)
Launch vehicle
Unknown
Launch site
Air Force Western Test Range (AFWTR)
Object type
Payload
Rocket body
Debris
Shape & HBR
Unknown
Radar Cross Section
Small (<0.1 m²)

Expand to show TLE details & history

TLE from 15 hours ago
0 OPS 4682 DEB
1 18967U 65027AP  25181.79559817  .00000374  00000-0  12914-2 0  9992
2 18967  90.2398   2.5206 0027443 354.3832  23.3652 12.95901703772809
Epoch: 2025-06-30T19:05Z
TLE epoch observation values (Epoch: 2025-06-30T19:05:39.681Z)
Latitude
17.86324°
Longitude
156.92809°
Altitude
1,261.23 km
Speed
7.235 km/s
True Right ascension
00h 09m 46s
True Declination
17° 46' 11"
Sunlit
Object was in daylight at epoch
Visualization orbit readout
Latitude
-5.02913°
Longitude
157.03945°
Altitude
1,260.858 km
Speed
7.235 km/s
Apparent Right ascension
02h 47m 46s
Apparent Declination
-43° 07' 15"
Sunlit
Object is in daylight
Visualization observer readout
Local Sidereal Time
21:26:28
Azimuth
129.962° SE
Elevation
-20.154°
Doppler factor
1
Orbital elements
Apogee altitude
1,296.323 km
Perigee altitude
1,254.316 km
Semi-major axis
7,653.456 km
Eccentricity
0.00274
Inclination
90.2398°
RAAN
2.5206°
Arg. of periapsis
354.3832°
True anomaly
Unknown
Mean anomaly
23.3652°
Eccentric anomaly
Unknown
Mean motion
3.24158 °/min
Orbital period
111.06 mins
BSTAR
0.0012914
Loading maneuver chart data...
Loading SW <> Apogee altitude chart data...
Loading historical data...
Loading historical data...
Loading historical data...
Loading historical data...
Loading historical data...
Loading historical data...
Loading historical data...

OPS 4682 DEB Visibility forecast

Observer location: undefined°, undefined°

Span
Click to sort rows by Start time (UTC) header in descending order
Start Az.
Max El. time (UTC)
Max El. Az.
Max El.
End time (UTC)
End Az.
13 mins2025-07-01 11:47:07.398Z150.867° SSE2025-07-01 11:53:07.398Z85.761° E38.069°2025-07-01 12:00:07.398Z8.514° NNE
10 mins2025-07-01 13:40:07.398Z232.305° WSW2025-07-01 13:44:07.398Z274.167° WNW25.78°2025-07-01 13:50:07.398Z332.879° NNW
12 mins2025-07-01 23:25:07.398Z22.85° NE2025-07-01 23:31:07.398Z85.219° E31.156°2025-07-01 23:37:07.398Z145.845° SSE
12 mins2025-07-02 01:16:07.398Z344.19° N2025-07-02 01:22:07.398Z277.594° WNW33.647°2025-07-02 01:28:07.398Z217.936° SW
|